This is the latest recevied weather packets stored in our database for station/object KC9NPJ-13. If no packets are shown the sender has not sent any weather packets the latest 10 day(s).
| Time | Temp. | Humidity | Pressure | Rain* | Wind** | Luminosity | Snow |
|---|---|---|---|---|---|---|---|
| 1777463368 | 12.22° C | 95% | 1013.8 hPa | 0 mm | - | - | - |
| 1777463068 | 12.22° C | 95% | 1013.7 hPa | 0 mm | - | - | - |
| 1777462768 | 12.22° C | 95% | 1013.7 hPa | 0 mm | - | - | - |
| 1777462468 | 12.22° C | 95% | 1013.6 hPa | 0 mm | - | - | - |
| 1777462168 | 12.22° C | 95% | 1013.6 hPa | 0 mm | - | - | - |
| 1777461868 | 12.22° C | 95% | 1013.5 hPa | 0 mm | - | - | - |
| 1777461568 | 12.22° C | 95% | 1013.6 hPa | 0 mm | - | - | - |
| 1777461268 | 12.22° C | 95% | 1013.5 hPa | 0 mm | - | - | - |
| 1777460968 | 12.22° C | 95% | 1013.5 hPa | 0 mm | - | - | - |
| 1777460668 | 12.22° C | 95% | 1013.3 hPa | 0 mm | - | - | - |
| 1777460368 | 12.22° C | 95% | 1013.1 hPa | 0.76 mm | - | - | - |
| 1777460068 | 12.22° C | 95% | 1013.2 hPa | 0.76 mm | - | - | - |
| 1777459768 | 12.22° C | 95% | 1013.4 hPa | 1.02 mm | - | - | - |
| 1777459468 | 12.22° C | 95% | 1013.4 hPa | 1.78 mm | - | - | - |
| 1777459168 | 12.22° C | 95% | 1013.2 hPa | 2.03 mm | - | - | - |
| 1777458868 | 12.22° C | 95% | 1013 hPa | 2.03 mm | - | - | - |
| 1777458568 | 12.22° C | 95% | 1013.2 hPa | 2.29 mm | - | - | - |
| 1777458268 | 12.22° C | 95% | 1013.3 hPa | 2.54 mm | - | - | - |
| 1777457968 | 12.22° C | 95% | 1013.3 hPa | 2.54 mm | - | - | - |
| 1777457668 | 12.22° C | 95% | 1013.2 hPa | 2.54 mm | - | - | - |
| 1777457368 | 12.22° C | 95% | 1013.2 hPa | 2.54 mm | - | - | - |
| 1777457068 | 12.22° C | 95% | 1013.3 hPa | 2.54 mm | - | - | - |
| 1777456768 | 12.22° C | 95% | 1013.2 hPa | 1.78 mm | - | - | - |
| 1777456468 | 12.78° C | 95% | 1013.1 hPa | 1.78 mm | - | - | - |
| 1777456168 | 12.78° C | 95% | 1013.2 hPa | 1.52 mm | - | - | - |
* Rain latest hour (hover to see other rain measurements)
** Current wind speed in m/s (hover to see current wind gust speed)